Regional Weather Roundup
Issued by NWS

Home | Current Version | Previous Version | Text Only | Print | Product List | Glossary On
Versions: 1 2 3 4 5 6 7 8 9 10 11 12 13 14 15 16 17 18 19 20 21 22 23 24
000
ASUS45 KCYS 231610
RWRWY

WYOMING REGIONAL WEATHER ROUNDUP
NATIONAL WEATHER SERVICE CHEYENNE WY
1000 AM MDT THU MAR 23 2017

NOTE:  "FAIR" INDICATES FEW OR NO CLOUDS BELOW 12,000 FEET
WITH NO SIGNIFICANT WEATHER AND/OR OBSTRUCTIONS TO VISIBILITY.

WYZ001-231700-
YELLOWSTONE NATIONAL PARK

CITY           SKY/WX    TMP DP  RH WIND       PRES   REMARKS
LK YELLOWSTONE   N/A     33  26  75 VRB5      29.82S WCI  29
W YELLOWSTONE  NOT AVBL

$$
WYZ002>013-054>058-071-098>099-231700-
NORTHERN WYOMING

CITY           SKY/WX    TMP DP  RH WIND       PRES   REMARKS
JACKSON        PTSUNNY   36  32  87 CALM      29.77R
CODY           CLOUDY    44  33  65 N16G22    29.78R
GREYBULL       LGT RAIN  47  42  83 NW12      29.70S
WORLAND        LGT RAIN  45  44  97 NW7       29.70R
SHERIDAN       LGT RAIN  44  40  85 N7        29.79R
BUFFALO        LGT RAIN  43  39  86 N18G25    29.76S
GILLETTE       CLOUDY    44  43  96 N14       29.71S
HULETT         CLOUDY    45  41  87 N10       29.70R
NEWCASTLE      FAIR      55  37  50 S10       29.67S

$$
WYZ014>020-022>026-101>103-231700-
CENTRAL WYOMING

CITY           SKY/WX    TMP DP  RH WIND       PRES   REMARKS
BIG PINEY      LGT SNOW  33  33 100 N7        29.72R FOG     WCI  27
PINEDALE       SNOW      32  32 100 NW8       29.72S VSB 1/4 WCI  25
DUBOIS         LGT SNOW  32  32 100 NW7       29.74S WCI  26
LANDER         LGT RAIN  37  35  92 W7        29.72R WCI  32
RIVERTON       RAIN      38  36  92 SW6       29.74R FOG     WCI  33
CASPER         LGT RAIN  42  40  92 NW10      29.73F
DOUGLAS        FAIR      53  39  59 NW9       29.69F

$$
WYZ021-027>030-104>119-231700-
SOUTHERN WYOMING

CITY           SKY/WX    TMP DP  RH WIND       PRES   REMARKS
EVANSTON       SNOW      32  29  88 N10       29.73R VSB 1/2 WCI  24
KEMMERER       LGT SNOW  34  34 100 N8        29.71S WCI  27
FORT BRIDGER   FOG       36  36 100 W5        29.74R VSB 1/4 WCI  32
ROCK SPRINGS   PTSUNNY   40  36  86 SW16      29.70S WCI  31
DIXON            N/A     51  32  48 SW18      29.78S
RAWLINS        CLOUDY    44  34  67 NW3       29.73S
SARATOGA       PTSUNNY   52  23  32 SW23G30   29.74S
LARAMIE        FAIR      54  18  24 SW30G44   29.72F
CHEYENNE       FAIR      60  27  28 SE5       29.70F
TORRINGTON     FAIR      50  36  58 NW5       29.65F
PINE BLUFFS    FAIR      59  36  41 N8        29.68F

$$




USA.gov is the U.S. government's official web portal to all federal, state and local government web resources and services.